Skip Page Navigation
NASA JPL Caltech
NASA Logo - Jet Propulsion Laboratory + View the NASA Portal
+ Center for Near-Earth Object Studies
JPL Home Earth Solar System Stars & Galaxies Technology
JPL Solar System Dynamics
BODIES ORBITS EPHEMERIDES TOOLS PHYSICAL DATA DISCOVERY FAQ SITE MAP
IMPORTANT: The SSD Announcement email list is now available. Major changes are coming in the near future, including possible hostname and/or URL changes. To be notified of such changes, subscribe to this email list.

Please visit this page for more details.


JPL Small-Body Database Browser
Search: [ help ]  
447586 (2006 UU25)
Classification: Main-belt Asteroid          SPK-ID: 2447586
Ephemeris | Orbit Diagram | Orbital Elements | Mission Design | Physical Parameters | Discovery Circumstances ]

[ show orbit diagram ]
Orbital Elements at Epoch 2458600.5 (2019-Apr-27.0) TDB
Reference: JPL 22 (heliocentric ecliptic J2000)
 Element Value Uncertainty (1-sigma)   Units 
e .1749838906196853 4.3184e-08  
a 2.70289902416185 2.8004e-08 au
q 2.229935236961858 1.181e-07 au
i 11.32592814747311 9.0156e-06 deg
node 215.667729998315 3.0364e-05 deg
peri 111.8164896419883 4.6001e-05 deg
M 341.3875074890591 3.0549e-05 deg
tp 2458684.416081162933
(2019-Jul-19.91608116)
0.00013795 TDB
period 1623.092081885205
4.44
2.5225e-05
6.906e-08
d
yr
n .2217988763655749 3.4471e-09 deg/d
Q 3.175862811361841 3.2905e-08 au
  Orbit Determination Parameters
   # obs. used (total)      111  
   data-arc span      8038 days (22.01 yr)  
   first obs. used      1997-09-28  
   last obs. used      2019-10-01  
   planetary ephem.      DE431  
   SB-pert. ephem.      SB431-N16  
   condition code      0  
   norm. resid. RMS      .61002  
   source      ORB  
   producer      Otto Matic  
   solution date      2019-Nov-08 16:22:03  

Additional Information
 Earth MOID = 1.24823 au 
 Jupiter MOID = 2.30871 au 
 T_jup = 3.317 
[ hide covariance matrix ]
Orbital Elements at Epoch 2457117.5 (2015-Apr-05.0) TDB
Reference: JPL 22 (heliocentric ecliptic J2000)
 Element Value Uncertainty (1-sigma)   Units 
e .1769929678357794 4.32e-08  
q 2.223960602223399 1.1841e-07 au
tp 2457062.795853225739
(2015-Feb-09.29585323)
0.000134 TDB
node 215.6900041159889 3.036e-05 deg
peri 112.0933821570024 4.5686e-05 deg
i 11.32793760303863 9.0147e-06 deg
  Orbit Determination Parameters
   # obs. used (total)      111  
   data-arc span      8038 days (22.01 yr)  
   first obs. used      1997-09-28  
   last obs. used      2019-10-01  
   planetary ephem.      DE431  
   SB-pert. ephem.      SB431-N16  
   condition code      0  
   norm. resid. RMS      .61002  
   source      ORB  
   producer      Otto Matic  
   solution date      2019-Nov-08 16:22:03  

Additional Information
 Jupiter MOID = 2.30871 au 
 T_jup = 3.317 
Orbit Covariance (6×6)
  e q tp node peri i
e 1.866267159024231E-15 -5.019003246051473E-15 2.793036241410447E-13 -3.801339915335264E-15 8.002465416276576E-14 -3.359360796214789E-15
q -5.019003246051473E-15 1.402113885000834E-14 -8.601641829130101E-13 9.374271305698082E-15 -2.404829272438691E-13 8.680281250233967E-15
tp 2.793036241410447E-13 -8.601641829130101E-13 1.795712976908171E-8 -1.207025739002199E-10 4.607698770099003E-9 2.99907890215828E-11
node -3.801339915335264E-15 9.374271305698082E-15 -1.207025739002199E-10 9.21734168167528E-10 -9.327461155994905E-10 1.059135584094914E-10
peri 8.002465416276576E-14 -2.404829272438691E-13 4.607698770099003E-9 -9.327461155994905E-10 2.08722985378527E-9 -9.637555159490068E-11
i -3.359360796214789E-15 8.680281250233967E-15 2.99907890215828E-11 1.059135584094914E-10 -9.637555159490068E-11 8.126502778686476E-11

Ephemeris | Orbit Diagram | Orbital Elements | Mission Design | Physical Parameters | Discovery Circumstances ]

Physical Parameter Table
Parameter Symbol Value Units Sigma Reference Notes
absolute magnitude H 17.4   n/a MPO446776  

447586 (2006 UU25)          Discovered 2006-Oct-16 by Spacewatch at Kitt Peak
Reference: Last Updated: 2015-10-28

Alternate Designations
 2006 UU25 = 2014 KP57 
Ephemeris | Orbit Diagram | Orbital Elements | Mission Design | Physical Parameters | Discovery Circumstances ]
ABOUT SSD CREDITS/AWARDS PRIVACY/COPYRIGHT GLOSSARY LINKS
FirstGov 2019-Dec-11 06:24 UT
(server date/time)  
NASA Home Page
Site Manager:   Ryan S. Park
Webmaster  Alan B. Chamberlin